| time (UTC) | temp F | wind direction | speed MPH | gust MPH | rain 1hr in | rain 24hr in | rain mn in | humidity % | barometer mb |
| 20260507185803 | 54 | 0 | 0.0 | 0.0 | 0.00 | 0.00 | 0.00 | 7 | 1013.4 |
| 20260507185305 | 54 | 0 | 0.0 | 0.0 | 0.00 | 0.00 | 0.00 | 7 | 1013.4 |
| 20260507184803 | 54 | 297 | 0.0 | 1.0 | 0.00 | 0.00 | 0.00 | 7 | 1013.4 |
| 20260507184302 | 54 | 0 | 0.0 | 0.0 | 0.00 | 0.00 | 0.00 | 7 | 1013.0 |
| 20260507183802 | 54 | 0 | 0.0 | 0.0 | 0.00 | 0.00 | 0.00 | 7 | 1013.2 |
| 20260507183302 | 55 | 0 | 0.0 | 0.0 | 0.00 | 0.00 | 0.00 | 7 | 1013.1 |
| 20260507182801 | 55 | 0 | 0.0 | 0.0 | 0.00 | 0.00 | 0.00 | 7 | 1013.2 |
| 20260507182301 | 55 | 358 | 0.0 | 1.0 | 0.00 | 0.00 | 0.00 | 7 | 1013.2 |
| 20260507181801 | 55 | 0 | 0.0 | 0.0 | 0.00 | 0.00 | 0.00 | 7 | 1013.2 |
| 20260507181300 | 55 | 0 | 0.0 | 0.0 | 0.00 | 0.00 | 0.00 | 7 | 1013.0 |
| 20260507180800 | 55 | 0 | 0.0 | 0.0 | 0.00 | 0.00 | 0.00 | 7 | 1013.0 |
| 20260507180300 | 55 | 0 | 0.0 | 0.0 | 0.00 | 0.00 | 0.00 | 7 | 1012.9 |
| 20260507175759 | 55 | 0 | 0.0 | 0.0 | 0.00 | 0.00 | 0.00 | 7 | 1012.6 |
| 20260507175259 | 55 | 0 | 0.0 | 0.0 | 0.00 | 0.00 | 0.00 | 7 | 1012.5 |
| 20260507174759 | 55 | 0 | 0.0 | 0.0 | 0.00 | 0.00 | 0.00 | 7 | 1012.5 |
| 20260507174258 | 56 | 0 | 0.0 | 0.0 | 0.00 | 0.00 | 0.00 | 7 | 1012.3 |
| 20260507173758 | 56 | 0 | 0.0 | 0.0 | 0.00 | 0.00 | 0.00 | 7 | 1012.3 |
| 20260507173258 | 55 | 0 | 0.0 | 0.0 | 0.00 | 0.00 | 0.00 | 7 | 1012.1 |
| 20260507172757 | 55 | 334 | 0.0 | 1.0 | 0.00 | 0.00 | 0.00 | 7 | 1012.0 |
| 20260507172257 | 55 | 0 | 0.0 | 0.0 | 0.00 | 0.00 | 0.00 | 7 | 1012.0 |
| 20260507171757 | 56 | 0 | 0.0 | 0.0 | 0.00 | 0.00 | 0.00 | 7 | 1011.6 |
| 20260507171256 | 56 | 0 | 0.0 | 0.0 | 0.00 | 0.00 | 0.00 | 7 | 1011.7 |
| 20260507170756 | 56 | 6 | 0.0 | 1.0 | 0.00 | 0.00 | 0.00 | 7 | 1011.7 |
| 20260507170256 | 56 | 323 | 0.0 | 1.0 | 0.00 | 0.00 | 0.00 | 7 | 1011.7 |
| 20260507165755 | 56 | 0 | 0.0 | 0.0 | 0.00 | 0.00 | 0.00 | 7 | 1011.5 |
| 20260507165255 | 56 | 351 | 0.0 | 1.0 | 0.00 | 0.00 | 0.00 | 7 | 1011.4 |
| 20260507164755 | 57 | 20 | 0.0 | 2.0 | 0.00 | 0.00 | 0.00 | 7 | 1011.5 |
| 20260507164254 | 57 | 23 | 0.0 | 1.0 | 0.00 | 0.00 | 0.00 | 7 | 1011.7 |
| 20260507163754 | 56 | 0 | 0.0 | 0.0 | 0.00 | 0.00 | 0.00 | 7 | 1011.4 |
| 20260507163254 | 57 | 5 | 0.0 | 1.0 | 0.00 | 0.00 | 0.00 | 7 | 1011.6 |
| 20260507162753 | 57 | 0 | 0.0 | 0.0 | 0.00 | 0.00 | 0.00 | 7 | 1011.5 |
| 20260507162253 | 57 | 0 | 0.0 | 0.0 | 0.00 | 0.00 | 0.00 | 7 | 1011.6 |
| 20260507161753 | 57 | 245 | 0.0 | 1.0 | 0.00 | 0.00 | 0.00 | 7 | 1011.3 |
| 20260507161252 | 57 | 0 | 0.0 | 0.0 | 0.00 | 0.00 | 0.00 | 7 | 1011.6 |
| 20260507160752 | 57 | 335 | 0.0 | 1.0 | 0.00 | 0.00 | 0.00 | 7 | 1011.6 |
| 20260507160252 | 57 | 0 | 0.0 | 0.0 | 0.00 | 0.00 | 0.00 | 7 | 1011.6 |
| 20260507155751 | 57 | 298 | 0.0 | 1.0 | 0.00 | 0.00 | 0.00 | 7 | 1011.6 |
| 20260507155251 | 57 | 0 | 0.0 | 0.0 | 0.00 | 0.00 | 0.00 | 7 | 1011.7 |
| 20260507154751 | 57 | 0 | 0.0 | 0.0 | 0.00 | 0.00 | 0.00 | 7 | 1011.7 |
| 20260507154250 | 57 | 0 | 0.0 | 0.0 | 0.00 | 0.00 | 0.00 | 7 | 1012.1 |
| 20260507153750 | 57 | 9 | 0.0 | 1.0 | 0.00 | 0.00 | 0.00 | 7 | 1011.8 |
| 20260507153250 | 57 | 0 | 0.0 | 0.0 | 0.00 | 0.00 | 0.00 | 7 | 1011.9 |
| 20260507152749 | 57 | 0 | 0.0 | 0.0 | 0.00 | 0.00 | 0.00 | 7 | 1011.7 |
| 20260507152249 | 57 | 0 | 0.0 | 0.0 | 0.00 | 0.00 | 0.00 | 7 | 1011.6 |
| 20260507151749 | 58 | 202 | 0.0 | 2.0 | 0.00 | 0.00 | 0.00 | 7 | 1011.7 |
| 20260507151248 | 58 | 336 | 0.0 | 1.0 | 0.00 | 0.00 | 0.00 | 7 | 1011.7 |
| 20260507150748 | 58 | 0 | 0.0 | 0.0 | 0.00 | 0.00 | 0.00 | 7 | 1011.6 |
| 20260507150248 | 58 | 332 | 1.0 | 2.0 | 0.00 | 0.00 | 0.00 | 7 | 1011.4 |
| 20260507145747 | 58 | 358 | 0.0 | 2.0 | 0.00 | 0.00 | 0.00 | 7 | 1011.8 |
| 20260507145247 | 59 | 0 | 0.0 | 0.0 | 0.00 | 0.00 | 0.00 | 7 | 1011.6 |
| 20260507144747 | 58 | 354 | 0.0 | 1.0 | 0.00 | 0.00 | 0.00 | 7 | 1011.5 |
| 20260507144246 | 58 | 6 | 0.0 | 1.0 | 0.00 | 0.00 | 0.00 | 7 | 1011.4 |
| 20260507143746 | 58 | 0 | 0.0 | 0.0 | 0.00 | 0.00 | 0.00 | 7 | 1011.6 |
| 20260507143246 | 58 | 46 | 0.0 | 1.0 | 0.00 | 0.00 | 0.00 | 7 | 1011.4 |
| 20260507142745 | 58 | 317 | 1.0 | 1.0 | 0.00 | 0.00 | 0.00 | 7 | 1011.4 |
| 20260507142245 | 58 | 0 | 0.0 | 0.0 | 0.00 | 0.00 | 0.00 | 7 | 1011.4 |
| 20260507141745 | 58 | 355 | 0.0 | 1.0 | 0.00 | 0.00 | 0.00 | 7 | 1011.2 |
| 20260507141244 | 58 | 331 | 0.0 | 1.0 | 0.00 | 0.00 | 0.00 | 7 | 1011.2 |
| 20260507140744 | 58 | 141 | 0.0 | 1.0 | 0.00 | 0.00 | 0.00 | 7 | 1011.2 |
| 20260507140244 | 59 | 275 | 1.0 | 2.0 | 0.00 | 0.00 | 0.00 | 7 | 1011.1 |
| 20260507135743 | 59 | 351 | 0.0 | 1.0 | 0.00 | 0.00 | 0.00 | 7 | 1011.3 |
| 20260507135243 | 59 | 0 | 0.0 | 0.0 | 0.00 | 0.00 | 0.00 | 7 | 1011.1 |
| 20260507134743 | 59 | 0 | 0.0 | 0.0 | 0.00 | 0.00 | 0.00 | 7 | 1011.1 |
| 20260507134242 | 59 | 349 | 0.0 | 1.0 | 0.00 | 0.00 | 0.00 | 7 | 1011.0 |
| 20260507133742 | 59 | 0 | 0.0 | 0.0 | 0.00 | 0.00 | 0.00 | 7 | 1011.3 |
| 20260507133242 | 59 | 344 | 0.0 | 1.0 | 0.00 | 0.00 | 0.00 | 7 | 1011.4 |
| 20260507132741 | 59 | 359 | 0.0 | 1.0 | 0.00 | 0.00 | 0.00 | 7 | 1011.4 |
| 20260507132241 | 59 | 68 | 0.0 | 1.0 | 0.00 | 0.00 | 0.00 | 7 | 1011.0 |
| 20260507131741 | 59 | 0 | 0.0 | 0.0 | 0.00 | 0.00 | 0.00 | 7 | 1010.8 |
| 20260507131240 | 59 | 0 | 0.0 | 0.0 | 0.00 | 0.00 | 0.00 | 7 | 1011.2 |
| 20260507130740 | 58 | 15 | 0.0 | 1.0 | 0.00 | 0.00 | 0.00 | 7 | 1010.8 |
| 20260507130240 | 58 | 249 | 2.0 | 2.0 | 0.00 | 0.00 | 0.00 | 7 | 1010.9 |
| 20260507125739 | 58 | 0 | 0.0 | 0.0 | 0.00 | 0.00 | 0.00 | 7 | 1011.0 |
| 20260507125239 | 58 | 0 | 0.0 | 0.0 | 0.00 | 0.00 | 0.00 | 7 | 1010.9 |
| 20260507124739 | 58 | 352 | 0.0 | 1.0 | 0.00 | 0.00 | 0.00 | 7 | 1011.2 |
| 20260507124238 | 58 | 4 | 0.0 | 1.0 | 0.00 | 0.00 | 0.00 | 7 | 1011.1 |
| 20260507123738 | 58 | 0 | 0.0 | 0.0 | 0.00 | 0.00 | 0.00 | 7 | 1011.1 |
| 20260507123238 | 59 | 201 | 2.0 | 2.0 | 0.00 | 0.00 | 0.00 | 7 | 1011.1 |
| 20260507122737 | 59 | 11 | 0.0 | 1.0 | 0.00 | 0.00 | 0.00 | 7 | 1011.2 |
| 20260507122237 | 59 | 294 | 1.0 | 1.0 | 0.00 | 0.00 | 0.00 | 7 | 1010.9 |
| 20260507121737 | 59 | 343 | 0.0 | 1.0 | 0.00 | 0.00 | 0.00 | 7 | 1010.8 |
| 20260507121236 | 59 | 290 | 0.0 | 1.0 | 0.00 | 0.00 | 0.00 | 7 | 1011.1 |
| 20260507120736 | 59 | 350 | 0.0 | 1.0 | 0.00 | 0.00 | 0.00 | 7 | 1010.9 |
| 20260507120236 | 59 | 8 | 0.0 | 1.0 | 0.00 | 0.00 | 0.00 | 7 | 1011.1 |
| 20260507115735 | 59 | 0 | 0.0 | 0.0 | 0.00 | 0.00 | 0.00 | 7 | 1011.0 |
| 20260507115235 | 59 | 345 | 0.0 | 1.0 | 0.00 | 0.00 | 0.00 | 7 | 1011.0 |
| 20260507114735 | 59 | 0 | 0.0 | 0.0 | 0.00 | 0.00 | 0.00 | 7 | 1010.8 |
| 20260507114234 | 59 | 0 | 0.0 | 0.0 | 0.00 | 0.00 | 0.00 | 7 | 1010.8 |
| 20260507113734 | 58 | 0 | 0.0 | 1.0 | 0.00 | 0.00 | 0.00 | 8 | 1010.9 |
| 20260507113234 | 57 | 0 | 0.0 | 0.0 | 0.00 | 0.00 | 0.00 | 8 | 1010.8 |
| 20260507112733 | 58 | 220 | 1.0 | 2.0 | 0.00 | 0.00 | 0.00 | 8 | 1010.7 |
| 20260507112233 | 57 | 0 | 0.0 | 0.0 | 0.00 | 0.00 | 0.00 | 8 | 1010.8 |
| 20260507111733 | 55 | 0 | 0.0 | 0.0 | 0.00 | 0.00 | 0.00 | 8 | 1010.8 |
| 20260507111232 | 56 | 305 | 0.0 | 1.0 | 0.00 | 0.00 | 0.00 | 8 | 1010.6 |
| 20260507110732 | 56 | 246 | 1.0 | 2.0 | 0.00 | 0.00 | 0.00 | 8 | 1010.7 |
| 20260507110232 | 56 | 351 | 1.0 | 2.0 | 0.00 | 0.00 | 0.00 | 8 | 1010.6 |
| 20260507105731 | 56 | 337 | 0.0 | 1.0 | 0.00 | 0.00 | 0.00 | 8 | 1010.6 |
| 20260507105231 | 56 | 346 | 0.0 | 1.0 | 0.00 | 0.00 | 0.00 | 8 | 1010.6 |
| 20260507104731 | 55 | 0 | 0.0 | 0.0 | 0.00 | 0.00 | 0.00 | 8 | 1010.5 |
| 20260507104230 | 55 | 0 | 0.0 | 0.0 | 0.00 | 0.00 | 0.00 | 8 | 1010.4 |
| 20260507103730 | 56 | 335 | 0.0 | 1.0 | 0.00 | 0.00 | 0.00 | 8 | 1010.1 |
| 20260507103230 | 56 | 0 | 0.0 | 0.0 | 0.00 | 0.00 | 0.00 | 8 | 1010.3 |
| 20260507102729 | 56 | 0 | 0.0 | 0.0 | 0.00 | 0.00 | 0.00 | 8 | 1010.6 |
| 20260507102229 | 56 | 0 | 0.0 | 0.0 | 0.00 | 0.00 | 0.00 | 8 | 1010.2 |
| 20260507101729 | 56 | 0 | 0.0 | 0.0 | 0.00 | 0.00 | 0.00 | 8 | 1010.1 |
| 20260507101228 | 56 | 0 | 0.0 | 0.0 | 0.00 | 0.00 | 0.00 | 8 | 1009.9 |
| 20260507100728 | 56 | 0 | 0.0 | 0.0 | 0.00 | 0.00 | 0.00 | 8 | 1010.1 |
| 20260507100228 | 56 | 307 | 0.0 | 1.0 | 0.00 | 0.00 | 0.00 | 8 | 1010.0 |
| 20260507095727 | 56 | 16 | 0.0 | 1.0 | 0.00 | 0.00 | 0.00 | 8 | 1009.8 |
| 20260507095227 | 56 | 307 | 1.0 | 2.0 | 0.00 | 0.00 | 0.00 | 8 | 1009.9 |
| 20260507094727 | 57 | 355 | 0.0 | 1.0 | 0.00 | 0.00 | 0.00 | 8 | 1009.7 |
| 20260507094226 | 57 | 0 | 0.0 | 0.0 | 0.00 | 0.00 | 0.00 | 8 | 1009.5 |
| 20260507093726 | 57 | 326 | 0.0 | 1.0 | 0.00 | 0.00 | 0.00 | 8 | 1009.5 |
| 20260507093226 | 57 | 0 | 0.0 | 0.0 | 0.00 | 0.00 | 0.00 | 8 | 1009.6 |
| 20260507092725 | 57 | 0 | 0.0 | 0.0 | 0.00 | 0.00 | 0.00 | 8 | 1009.5 |
| 20260507092225 | 57 | 0 | 0.0 | 0.0 | 0.00 | 0.00 | 0.00 | 8 | 1009.5 |
| 20260507091725 | 57 | 350 | 0.0 | 1.0 | 0.00 | 0.00 | 0.00 | 8 | 1009.7 |
| 20260507091224 | 57 | 7 | 0.0 | 1.0 | 0.00 | 0.00 | 0.00 | 8 | 1009.4 |
| 20260507090724 | 57 | 318 | 0.0 | 1.0 | 0.00 | 0.00 | 0.00 | 8 | 1009.2 |
| 20260507090224 | 57 | 323 | 0.0 | 1.0 | 0.00 | 0.00 | 0.00 | 8 | 1009.3 |
| 20260507085723 | 57 | 0 | 0.0 | 0.0 | 0.00 | 0.00 | 0.00 | 8 | 1009.4 |
| 20260507085223 | 57 | 344 | 0.0 | 1.0 | 0.00 | 0.00 | 0.00 | 8 | 1009.1 |
| 20260507084723 | 58 | 5 | 0.0 | 2.0 | 0.00 | 0.00 | 0.00 | 8 | 1008.8 |
| 20260507084222 | 58 | 341 | 0.0 | 1.0 | 0.00 | 0.00 | 0.00 | 8 | 1008.8 |
| 20260507083722 | 59 | 0 | 0.0 | 0.0 | 0.00 | 0.00 | 0.00 | 8 | 1008.9 |
| 20260507083222 | 59 | 0 | 0.0 | 0.0 | 0.00 | 0.00 | 0.00 | 8 | 1008.8 |
| 20260507082721 | 59 | 265 | 0.0 | 1.0 | 0.00 | 0.00 | 0.00 | 8 | 1008.6 |
| 20260507082221 | 59 | 0 | 0.0 | 0.0 | 0.00 | 0.00 | 0.00 | 8 | 1008.6 |
| 20260507081721 | 59 | 0 | 0.0 | 0.0 | 0.00 | 0.00 | 0.00 | 8 | 1008.4 |
| 20260507081220 | 59 | 0 | 0.0 | 0.0 | 0.00 | 0.00 | 0.00 | 8 | 1008.4 |
| 20260507080720 | 59 | 0 | 0.0 | 0.0 | 0.00 | 0.00 | 0.00 | 8 | 1008.3 |
| 20260507080220 | 59 | 0 | 0.0 | 0.0 | 0.00 | 0.00 | 0.00 | 8 | 1008.4 |
| 20260507075719 | 58 | 0 | 0.0 | 0.0 | 0.00 | 0.00 | 0.00 | 8 | 1008.4 |
| 20260507075219 | 59 | 0 | 0.0 | 0.0 | 0.00 | 0.00 | 0.00 | 8 | 1008.3 |
| 20260507074719 | 59 | 0 | 0.0 | 0.0 | 0.00 | 0.00 | 0.00 | 8 | 1008.2 |
| 20260507074219 | 59 | 0 | 0.0 | 0.0 | 0.00 | 0.00 | 0.00 | 8 | 1008.1 |
| 20260507073718 | 59 | 312 | 2.0 | 2.0 | 0.00 | 0.00 | 0.00 | 8 | 1008.1 |
| 20260507073218 | 59 | 354 | 1.0 | 2.0 | 0.00 | 0.00 | 0.00 | 8 | 1008.0 |
| 20260507072717 | 59 | 345 | 0.0 | 1.0 | 0.00 | 0.00 | 0.00 | 8 | 1008.0 |
| 20260507072217 | 59 | 323 | 0.0 | 1.0 | 0.00 | 0.00 | 0.00 | 8 | 1007.7 |
| 20260507071717 | 59 | 0 | 0.0 | 0.0 | 0.00 | 0.00 | 0.00 | 8 | 1007.7 |
| 20260507071216 | 59 | 345 | 0.0 | 1.0 | 0.00 | 0.00 | 0.00 | 8 | 1007.8 |
| 20260507070716 | 59 | 352 | 0.0 | 1.0 | 0.00 | 0.00 | 0.00 | 8 | 1007.7 |
| 20260507070216 | 59 | 0 | 0.0 | 0.0 | 0.00 | 0.00 | 0.00 | 8 | 1007.8 |
| 20260507065715 | 59 | 340 | 0.0 | 1.0 | 0.00 | 0.00 | 0.00 | 8 | 1007.7 |
| 20260507065215 | 59 | 21 | 0.0 | 1.0 | 0.00 | 0.00 | 0.00 | 8 | 1007.8 |
| 20260507064715 | 60 | 0 | 0.0 | 0.0 | 0.00 | 0.00 | 0.00 | 8 | 1007.6 |
| 20260507064214 | 60 | 0 | 0.0 | 0.0 | 0.00 | 0.00 | 0.00 | 8 | 1007.6 |
| 20260507063714 | 59 | 333 | 0.0 | 1.0 | 0.00 | 0.00 | 0.00 | 8 | 1007.5 |
| 20260507063214 | 60 | 0 | 0.0 | 0.0 | 0.00 | 0.00 | 0.00 | 8 | 1006.9 |
| 20260507062713 | 60 | 76 | 0.0 | 1.0 | 0.00 | 0.00 | 0.00 | 8 | 1007.3 |
| 20260507062213 | 59 | 0 | 0.0 | 0.0 | 0.00 | 0.00 | 0.00 | 8 | 1007.0 |
| 20260507061713 | 59 | 0 | 0.0 | 0.0 | 0.00 | 0.00 | 0.00 | 8 | 1006.9 |
| 20260507061212 | 59 | 311 | 0.0 | 1.0 | 0.00 | 0.00 | 0.00 | 8 | 1007.1 |
| 20260507060712 | 59 | 0 | 0.0 | 0.0 | 0.00 | 0.00 | 0.00 | 8 | 1007.1 |
| 20260507060212 | 60 | 0 | 0.0 | 0.0 | 0.00 | 0.00 | 0.00 | 8 | 1007.4 |
| 20260507055711 | 60 | 0 | 0.0 | 0.0 | 0.00 | 0.00 | 0.00 | 8 | 1007.1 |
| 20260507055211 | 60 | 0 | 0.0 | 0.0 | 0.00 | 0.00 | 0.00 | 8 | 1007.1 |
| 20260507054711 | 60 | 10 | 0.0 | 1.0 | 0.00 | 0.00 | 0.00 | 8 | 1007.2 |
| 20260507054210 | 60 | 0 | 0.0 | 0.0 | 0.00 | 0.00 | 0.00 | 8 | 1007.1 |
| 20260507053710 | 60 | 0 | 0.0 | 0.0 | 0.00 | 0.00 | 0.00 | 8 | 1007.0 |
| 20260507053210 | 60 | 0 | 0.0 | 0.0 | 0.00 | 0.00 | 0.00 | 8 | 1006.9 |
| 20260507052709 | 59 | 0 | 0.0 | 0.0 | 0.00 | 0.00 | 0.00 | 8 | 1006.8 |
| 20260507052209 | 59 | 0 | 0.0 | 0.0 | 0.00 | 0.00 | 0.00 | 8 | 1006.9 |
| 20260507051709 | 59 | 0 | 0.0 | 0.0 | 0.00 | 0.00 | 0.00 | 8 | 1006.6 |
| 20260507051208 | 59 | 310 | 1.0 | 1.0 | 0.00 | 0.00 | 0.00 | 8 | 1006.7 |
| 20260507050708 | 60 | 0 | 0.0 | 0.0 | 0.00 | 0.00 | 0.00 | 8 | 1006.5 |
| 20260507050208 | 60 | 0 | 0.0 | 0.0 | 0.00 | 0.00 | 0.00 | 8 | 1006.7 |
| 20260507045707 | 60 | 0 | 0.0 | 0.0 | 0.00 | 0.00 | 0.00 | 8 | 1006.5 |
| 20260507045207 | 59 | 330 | 0.0 | 1.0 | 0.00 | 0.00 | 0.00 | 8 | 1006.5 |
| 20260507044707 | 59 | 0 | 0.0 | 0.0 | 0.00 | 0.00 | 0.00 | 8 | 1006.4 |
| 20260507044206 | 59 | 0 | 0.0 | 0.0 | 0.00 | 0.00 | 0.00 | 8 | 1006.4 |
| 20260507043706 | 59 | 0 | 0.0 | 0.0 | 0.00 | 0.00 | 0.00 | 8 | 1006.3 |
| 20260507043206 | 58 | 0 | 0.0 | 0.0 | 0.00 | 0.00 | 0.00 | 8 | 1006.0 |
| 20260507042705 | 58 | 0 | 0.0 | 0.0 | 0.00 | 0.00 | 0.00 | 8 | 1005.9 |
| 20260507042205 | 58 | 0 | 0.0 | 0.0 | 0.00 | 0.00 | 0.00 | 8 | 1006.1 |
| 20260507041705 | 58 | 0 | 0.0 | 0.0 | 0.00 | 0.00 | 0.00 | 8 | 1005.9 |
| 20260507041204 | 58 | 0 | 0.0 | 0.0 | 0.00 | 0.00 | 0.00 | 8 | 1006.0 |
| 20260507040704 | 58 | 0 | 0.0 | 0.0 | 0.00 | 0.00 | 0.00 | 8 | 1005.8 |
| 20260507040204 | 58 | 0 | 0.0 | 0.0 | 0.00 | 0.00 | 0.00 | 8 | 1006.0 |
| 20260507035703 | 58 | 0 | 0.0 | 0.0 | 0.00 | 0.00 | 0.00 | 8 | 1005.8 |
| 20260507035203 | 58 | 0 | 0.0 | 0.0 | 0.00 | 0.00 | 0.00 | 8 | 1006.0 |
| 20260507034703 | 58 | 0 | 0.0 | 0.0 | 0.00 | 0.00 | 0.00 | 8 | 1005.8 |
| 20260507034202 | 58 | 0 | 0.0 | 0.0 | 0.00 | 0.00 | 0.00 | 8 | 1005.8 |
| 20260507033702 | 57 | 0 | 0.0 | 0.0 | 0.00 | 0.00 | 0.00 | 8 | 1005.8 |
| 20260507033202 | 58 | 0 | 0.0 | 0.0 | 0.00 | 0.00 | 0.00 | 8 | 1005.7 |
| 20260507032701 | 57 | 0 | 0.0 | 0.0 | 0.00 | 0.00 | 0.00 | 8 | 1005.5 |
| 20260507032201 | 57 | 0 | 0.0 | 0.0 | 0.00 | 0.00 | 0.00 | 8 | 1005.6 |
| 20260507031701 | 57 | 0 | 0.0 | 0.0 | 0.00 | 0.00 | 0.00 | 8 | 1005.5 |
| 20260507031200 | 58 | 0 | 0.0 | 0.0 | 0.00 | 0.00 | 0.00 | 8 | 1005.4 |
| 20260507030700 | 57 | 0 | 0.0 | 0.0 | 0.00 | 0.00 | 0.00 | 8 | 1005.4 |
| 20260507030200 | 57 | 0 | 0.0 | 0.0 | 0.00 | 0.00 | 0.00 | 8 | 1005.3 |
| 20260507025659 | 57 | 0 | 0.0 | 0.0 | 0.00 | 0.00 | 0.00 | 8 | 1005.3 |
| 20260507025159 | 57 | 0 | 0.0 | 0.0 | 0.00 | 0.00 | 0.00 | 8 | 1005.3 |
| 20260507024659 | 57 | 0 | 0.0 | 0.0 | 0.00 | 0.00 | 0.00 | 8 | 1005.5 |
| 20260507024158 | 57 | 0 | 0.0 | 0.0 | 0.00 | 0.00 | 0.00 | 8 | 1005.3 |
| 20260507023658 | 58 | 0 | 0.0 | 0.0 | 0.00 | 0.00 | 0.00 | 8 | 1005.3 |
| 20260507023158 | 58 | 0 | 0.0 | 0.0 | 0.00 | 0.00 | 0.00 | 8 | 1005.2 |
| 20260507022657 | 58 | 0 | 0.0 | 0.0 | 0.00 | 0.00 | 0.00 | 8 | 1005.2 |
| 20260507022157 | 58 | 0 | 0.0 | 0.0 | 0.00 | 0.00 | 0.00 | 8 | 1005.3 |
| 20260507021657 | 58 | 0 | 0.0 | 0.0 | 0.00 | 0.00 | 0.00 | 8 | 1005.2 |
| 20260507021156 | 58 | 0 | 0.0 | 0.0 | 0.00 | 0.00 | 0.00 | 8 | 1005.1 |
| 20260507020656 | 58 | 0 | 0.0 | 0.0 | 0.00 | 0.00 | 0.00 | 8 | 1005.4 |
| 20260507020156 | 58 | 0 | 0.0 | 0.0 | 0.00 | 0.00 | 0.00 | 8 | 1005.5 |
| 20260507015655 | 58 | 0 | 0.0 | 0.0 | 0.00 | 0.00 | 0.00 | 8 | 1005.3 |
| 20260507015155 | 59 | 32 | 0.0 | 1.0 | 0.00 | 0.00 | 0.00 | 8 | 1005.3 |
| 20260507014655 | 59 | 0 | 0.0 | 0.0 | 0.00 | 0.00 | 0.00 | 8 | 1005.2 |
| 20260507014154 | 59 | 0 | 0.0 | 0.0 | 0.00 | 0.00 | 0.00 | 8 | 1005.3 |
| 20260507013654 | 59 | 0 | 0.0 | 0.0 | 0.00 | 0.00 | 0.00 | 8 | 1005.4 |
| 20260507013154 | 59 | 0 | 0.0 | 0.0 | 0.00 | 0.00 | 0.00 | 8 | 1005.6 |
| 20260507012653 | 59 | 0 | 0.0 | 0.0 | 0.00 | 0.00 | 0.00 | 8 | 1005.7 |
| 20260507012153 | 59 | 0 | 0.0 | 0.0 | 0.00 | 0.00 | 0.00 | 8 | 1005.5 |
| 20260507011653 | 60 | 0 | 0.0 | 0.0 | 0.00 | 0.00 | 0.00 | 8 | 1005.5 |
| 20260507011152 | 60 | 0 | 0.0 | 0.0 | 0.00 | 0.00 | 0.00 | 8 | 1005.3 |
| 20260507010152 | 60 | 309 | 1.0 | 1.0 | 0.00 | 0.00 | 0.00 | 8 | 1005.0 |
| 20260507005651 | 60 | 0 | 0.0 | 1.0 | 0.00 | 0.00 | 0.00 | 8 | 1005.2 |
| 20260507005151 | 60 | 0 | 0.0 | 0.0 | 0.00 | 0.00 | 0.00 | 8 | 1005.0 |
| 20260507004651 | 60 | 0 | 0.0 | 0.0 | 0.00 | 0.00 | 0.00 | 8 | 1005.3 |
| 20260507004150 | 60 | 351 | 0.0 | 1.0 | 0.00 | 0.00 | 0.00 | 7 | 1005.3 |
| 20260507003650 | 60 | 241 | 1.0 | 2.0 | 0.00 | 0.00 | 0.00 | 7 | 1005.4 |
| 20260507003150 | 61 | 0 | 0.0 | 0.0 | 0.00 | 0.00 | 0.00 | 7 | 1005.6 |
| 20260507002649 | 61 | 226 | 2.0 | 2.0 | 0.00 | 0.00 | 0.00 | 7 | 1005.2 |
| 20260507002149 | 61 | 0 | 0.0 | 0.0 | 0.00 | 0.00 | 0.00 | 7 | 1005.3 |
| 20260507001649 | 61 | 24 | 0.0 | 1.0 | 0.00 | 0.00 | 0.00 | 7 | 1005.3 |
| 20260507001148 | 62 | 299 | 1.0 | 2.0 | 0.00 | 0.00 | 0.00 | 7 | 1005.3 |
| 20260507000648 | 62 | 5 | 1.0 | 2.0 | 0.00 | 0.00 | 0.00 | 7 | 1005.0 |
| 20260507000148 | 63 | 129 | 0.0 | 1.0 | 0.00 | 0.00 | 0.00 | 7 | 1005.1 |
| 20260506235647 | 63 | 348 | 0.0 | 1.0 | 0.00 | 0.00 | 0.00 | 6 | 1005.2 |
| 20260506235147 | 63 | 0 | 0.0 | 0.0 | 0.00 | 0.00 | 0.00 | 6 | 1005.1 |
| 20260506234646 | 63 | 0 | 0.0 | 0.0 | 0.00 | 0.00 | 0.00 | 6 | 1004.9 |
| 20260506234146 | 63 | 0 | 0.0 | 0.0 | 0.00 | 0.00 | 0.00 | 6 | 1004.9 |
| 20260506233646 | 63 | 0 | 0.0 | 0.0 | 0.00 | 0.00 | 0.00 | 6 | 1004.6 |
| 20260506233146 | 63 | 0 | 0.0 | 0.0 | 0.00 | 0.00 | 0.00 | 6 | 1004.8 |
| 20260506232645 | 64 | 0 | 0.0 | 0.0 | 0.00 | 0.00 | 0.00 | 6 | 1004.7 |
| 20260506232145 | 64 | 0 | 0.0 | 0.0 | 0.00 | 0.00 | 0.00 | 6 | 1004.6 |
| 20260506231645 | 64 | 0 | 0.0 | 0.0 | 0.00 | 0.00 | 0.00 | 6 | 1004.6 |
| 20260506231144 | 63 | 0 | 0.0 | 0.0 | 0.00 | 0.00 | 0.00 | 6 | 1004.5 |
| 20260506230644 | 63 | 0 | 0.0 | 0.0 | 0.00 | 0.00 | 0.00 | 6 | 1004.5 |
| 20260506230144 | 63 | 0 | 0.0 | 0.0 | 0.00 | 0.00 | 0.00 | 6 | 1004.6 |
| 20260506225643 | 64 | 0 | 0.0 | 0.0 | 0.00 | 0.00 | 0.00 | 6 | 1004.8 |
| 20260506225143 | 64 | 0 | 0.0 | 0.0 | 0.00 | 0.00 | 0.00 | 6 | 1004.7 |
| 20260506224643 | 64 | 0 | 0.0 | 0.0 | 0.00 | 0.00 | 0.00 | 6 | 1005.0 |
| 20260506224142 | 64 | 0 | 0.0 | 0.0 | 0.00 | 0.00 | 0.00 | 6 | 1005.1 |
| 20260506223642 | 64 | 0 | 0.0 | 0.0 | 0.00 | 0.00 | 0.00 | 6 | 1005.1 |
| 20260506223142 | 64 | 0 | 0.0 | 0.0 | 0.00 | 0.00 | 0.00 | 6 | 1004.8 |
| 20260506222641 | 64 | 0 | 0.0 | 0.0 | 0.00 | 0.00 | 0.00 | 6 | 1005.1 |
| 20260506222141 | 63 | 0 | 0.0 | 0.0 | 0.00 | 0.00 | 0.00 | 6 | 1004.9 |
| 20260506221641 | 63 | 0 | 0.0 | 0.0 | 0.00 | 0.00 | 0.00 | 7 | 1005.0 |
| 20260506221140 | 63 | 0 | 0.0 | 0.0 | 0.00 | 0.00 | 0.00 | 7 | 1005.0 |
| 20260506220640 | 63 | 0 | 0.0 | 0.0 | 0.00 | 0.00 | 0.00 | 7 | 1004.7 |
| 20260506220140 | 63 | 0 | 0.0 | 0.0 | 0.00 | 0.00 | 0.00 | 7 | 1004.7 |
| 20260506215639 | 62 | 0 | 0.0 | 0.0 | 0.00 | 0.00 | 0.00 | 7 | 1004.7 |
| 20260506215139 | 62 | 0 | 0.0 | 0.0 | 0.00 | 0.00 | 0.00 | 7 | 1004.8 |
| 20260506214638 | 62 | 0 | 0.0 | 0.0 | 0.00 | 0.00 | 0.00 | 7 | 1004.8 |
| 20260506214138 | 62 | 0 | 0.0 | 0.0 | 0.00 | 0.00 | 0.00 | 7 | 1004.7 |
| 20260506213638 | 62 | 0 | 0.0 | 0.0 | 0.00 | 0.00 | 0.00 | 7 | 1004.6 |
| 20260506213138 | 62 | 0 | 0.0 | 0.0 | 0.00 | 0.00 | 0.00 | 7 | 1004.8 |
| 20260506212638 | 61 | 0 | 0.0 | 0.0 | 0.00 | 0.00 | 0.00 | 7 | 1004.4 |
| 20260506212137 | 61 | 0 | 0.0 | 0.0 | 0.00 | 0.00 | 0.00 | 7 | 1004.4 |
| 20260506211637 | 62 | 0 | 0.0 | 0.0 | 0.00 | 0.00 | 0.00 | 7 | 1004.5 |
| 20260506211136 | 62 | 0 | 0.0 | 0.0 | 0.00 | 0.00 | 0.00 | 7 | 1004.6 |
| 20260506210636 | 62 | 0 | 0.0 | 0.0 | 0.00 | 0.00 | 0.00 | 7 | 1004.7 |
| 20260506210136 | 62 | 0 | 0.0 | 0.0 | 0.00 | 0.00 | 0.00 | 7 | 1004.5 |
| 20260506205635 | 62 | 0 | 0.0 | 0.0 | 0.00 | 0.00 | 0.00 | 7 | 1004.6 |
| 20260506205135 | 62 | 0 | 0.0 | 0.0 | 0.00 | 0.00 | 0.00 | 7 | 1004.6 |
| 20260506204635 | 62 | 0 | 0.0 | 0.0 | 0.00 | 0.00 | 0.00 | 7 | 1004.8 |
| 20260506204134 | 63 | 0 | 0.0 | 0.0 | 0.00 | 0.00 | 0.00 | 7 | 1005.1 |
| 20260506203634 | 63 | 0 | 0.0 | 0.0 | 0.00 | 0.00 | 0.00 | 7 | 1005.2 |
| 20260506203134 | 63 | 0 | 0.0 | 0.0 | 0.00 | 0.00 | 0.00 | 7 | 1004.9 |
| 20260506202633 | 63 | 0 | 0.0 | 0.0 | 0.00 | 0.00 | 0.00 | 6 | 1005.1 |
| 20260506202133 | 64 | 0 | 0.0 | 0.0 | 0.00 | 0.00 | 0.00 | 6 | 1005.0 |
| 20260506201633 | 64 | 0 | 0.0 | 0.0 | 0.00 | 0.00 | 0.00 | 6 | 1005.0 |
| 20260506201132 | 64 | 0 | 0.0 | 0.0 | 0.00 | 0.00 | 0.00 | 6 | 1005.0 |
| 20260506200632 | 64 | 0 | 0.0 | 0.0 | 0.00 | 0.00 | 0.00 | 6 | 1004.8 |
| 20260506200132 | 64 | 0 | 0.0 | 0.0 | 0.00 | 0.00 | 0.00 | 6 | 1004.7 |
| 20260506195631 | 65 | 0 | 0.0 | 0.0 | 0.00 | 0.00 | 0.00 | 6 | 1004.8 |
| 20260506195131 | 65 | 0 | 0.0 | 0.0 | 0.00 | 0.00 | 0.00 | 6 | 1004.6 |
| 20260506194631 | 65 | 0 | 0.0 | 0.0 | 0.00 | 0.00 | 0.00 | 6 | 1004.9 |
| 20260506194130 | 65 | 0 | 0.0 | 0.0 | 0.00 | 0.00 | 0.00 | 6 | 1004.8 |
| 20260506193630 | 65 | 0 | 0.0 | 0.0 | 0.00 | 0.00 | 0.00 | 6 | 1004.9 |
| 20260506193130 | 65 | 0 | 0.0 | 0.0 | 0.00 | 0.00 | 0.00 | 6 | 1004.7 |
| 20260506192629 | 66 | 0 | 0.0 | 0.0 | 0.00 | 0.00 | 0.00 | 6 | 1004.6 |
| 20260506192129 | 66 | 0 | 0.0 | 0.0 | 0.00 | 0.00 | 0.00 | 6 | 1004.8 |
| 20260506191629 | 66 | 0 | 0.0 | 0.0 | 0.00 | 0.00 | 0.00 | 6 | 1004.7 |
| 20260506191128 | 66 | 0 | 0.0 | 0.0 | 0.00 | 0.00 | 0.00 | 6 | 1004.6 |
| 20260506190628 | 66 | 0 | 0.0 | 0.0 | 0.00 | 0.00 | 0.00 | 6 | 1004.7 |
| 20260506190128 | 66 | 0 | 0.0 | 0.0 | 0.00 | 0.00 | 0.00 | 6 | 1004.6 |